Timestamp,Temp,Chill,HIndex,Humid,Dewpt,Wind,HiWind,WindDir,Rain,RainRate,Barom,Solar,ET,UV,InsideTemp,InsideHumid
2015-07-03 00:00:00,54.9,54.9,54.9,85,50.4749700582239,0,0,0,0,0,29.96,0,0,0,78.2,46
2015-07-03 00:05:00,54.9,54.9,54.9,85,50.4749700582239,0,0,0,0,0,29.96,0,0,0,78.2,46
2015-07-03 00:10:00,54.8,54.8,54.8,86,50.692338818624,0,4,0,0,0,29.961,0,0,0,78.4,46
2015-07-03 00:15:00,54.8,54.8,54.8,86,50.692338818624,0,1,0,0,0,29.962,0,0,0,78.4,46
2015-07-03 00:20:00,54.7,54.7,54.7,86,50.5941532656677,0,2,0,0,0,29.961,0,0,0,78.4,46
2015-07-03 00:25:00,54.7,54.7,54.7,86,50.5941532656677,0,3,0,0,0,29.964,0,0,0,78.4,46
2015-07-03 00:30:00,54.7,54.7,54.7,86,50.5941532656677,0,0,0,0,0,29.963,0,0,0,78.4,46
2015-07-03 00:35:00,54.7,54.7,54.7,86,50.5941532656677,0,0,0,0,0,29.964,0,0,0,78.4,46
2015-07-03 00:40:00,54.7,54.7,54.7,86,50.5941532656677,0,0,0,0,0,29.968,0,0,0,78.4,46
2015-07-03 00:45:00,54.6,54.6,54.6,86,50.4959673155418,0,0,0,0,0,29.969,0,0,0,78.4,46
2015-07-03 00:50:00,54.6,54.6,54.6,86,50.4959673155418,0,0,0,0,0,29.971,0,0,0,78.4,46
2015-07-03 00:55:00,54.6,54.6,54.6,86,50.4959673155418,0,0,0,0,0,29.977,0,0,0,78.4,46
2015-07-03 01:00:00,54.6,54.6,54.6,87,50.8078999356352,0,0,0,0,0,29.976,0,0,0,78.4,46
2015-07-03 01:05:00,54.6,54.6,54.6,87,50.8078999356352,0,0,0,0,0,29.976,0,0,0,78.4,46
2015-07-03 01:10:00,54.6,54.6,54.6,87,50.8078999356352,0,0,0,0,0,29.977,0,0,0,78.4,46
2015-07-03 01:15:00,54.7,54.7,54.7,87,50.9062231819018,0,1,0,0,0,29.977,0,0,0,78.4,46
2015-07-03 01:20:00,54.9,54.9,54.9,87,51.1028685719507,0,0,0,0,0,29.979,0,0,0,78.4,46
2015-07-03 01:25:00,55,55,55,87,51.2011907157373,0,0,0,0,0,29.981,0,0,0,78.6,46
2015-07-03 01:30:00,55,55,55,87,51.2011907157373,0,0,0,0,0,29.986,0,0,0,78.6,46
2015-07-03 01:35:00,55,55,55,87,51.2011907157373,0,0,0,0,0,29.986,0,0,0,78.6,46
2015-07-03 01:40:00,54.9,54.9,54.9,87,51.1028685719507,0,0,0,0,0,29.988,0,0,0,78.6,46
2015-07-03 01:45:00,54.9,54.9,54.9,87,51.1028685719507,0,0,0,0,0,29.988,0,0,0,78.6,46
2015-07-03 01:50:00,54.8,54.8,54.8,87,51.0045460606729,0,1,0,0,0,29.989,0,0,0,78.6,46
2015-07-03 01:55:00,54.7,54.7,54.7,87,50.9062231819018,0,2,0,0,0,29.989,0,0,0,78.6,46
2015-07-03 02:00:00,54.6,54.6,54.6,87,50.8078999356352,0,0,0,0,0,29.991,0,0,0,78.6,46
2015-07-03 02:05:00,54.5,54.5,54.5,87,50.7095763218712,0,0,0,0,0,29.992,0,0,0,78.6,46
2015-07-03 02:10:00,54.4,54.4,54.4,87,50.6112523406076,0,0,0,0,0,29.992,0,0,0,78.6,46
2015-07-03 02:15:00,54.4,54.4,54.4,87,50.6112523406076,0,1,0,0,0,29.995,0,0,0,78.6,46
2015-07-03 02:20:00,54.3,54.3,54.3,87,50.5129279918425,0,2,0,0,0,29.996,0,0,0,78.6,46
2015-07-03 02:25:00,54.2,54.2,54.2,87,50.4146032755737,0,1,0,0,0,29.998,0,0,0,78.6,46
2015-07-03 02:30:00,54.2,54.2,54.2,87,50.4146032755737,0,1,0,0,0,29.998,0,0,0,78.6,46
2015-07-03 02:35:00,54.1,54.1,54.1,87,50.3162781917993,0,2,0,0,0,29.999,0,0,0,78.6,46
2015-07-03 02:40:00,54,54,54,87,50.2179527405171,0,2,0,0,0,30,0,0,0,78.6,46
2015-07-03 02:45:00,54,54,54,87,50.2179527405171,0,2,0,0,0,30.001,0,0,0,78.6,45
2015-07-03 02:50:00,53.9,53.9,53.9,87,50.119626921725,0,3,0,0,0,30.003,0,0,0,78.6,45
2015-07-03 02:55:00,53.9,53.9,53.9,87,50.119626921725,1,3,225,0,0,30.003,0,0,0,78.6,45
2015-07-03 03:00:00,53.8,53.8,53.8,88,50.3290101459332,0,2,0,0,0,30.006,0,0,0,78.6,45
2015-07-03 03:05:00,53.7,53.7,53.7,88,50.2305478469955,0,2,0,0,0,30.008,0,0,0,78.6,45
2015-07-03 03:10:00,53.7,53.7,53.7,88,50.2305478469955,1,4,225,0,0,30.007,0,0,0,78.6,45
2015-07-03 03:15:00,53.7,53.7,53.7,88,50.2305478469955,0,2,0,0,0,30.009,0,0,0,78.6,45
2015-07-03 03:20:00,53.6,53.6,53.6,88,50.1320852100035,1,4,225,0,0,30.011,0,0,0,78.6,45
2015-07-03 03:25:00,53.5,53.5,53.5,88,50.0336222349557,1,4,225,0,0,30.013,0,0,0,78.6,45
2015-07-03 03:30:00,53.5,53.5,53.5,88,50.0336222349557,0,1,0,0,0,30.011,0,0,0,78.6,45
2015-07-03 03:35:00,53.4,53.4,53.4,88,49.9351589218502,0,0,0,0,0,30.013,0,0,0,78.6,45
2015-07-03 03:40:00,53.3,53.3,53.3,88,49.8366952706853,0,2,0,0,0,30.014,0,0,0,78.6,45
2015-07-03 03:45:00,53.3,53.3,53.3,88,49.8366952706853,0,0,0,0,0,30.015,3,0,0,78.6,45
2015-07-03 03:50:00,53.3,53.3,53.3,88,49.8366952706853,0,0,0,0,0,30.019,5,0,0,78.6,45
2015-07-03 03:55:00,53.4,53.4,53.4,88,49.9351589218502,0,1,0,0,0,30.018,7,0,0,78.6,45
2015-07-03 04:00:00,53.3,53.3,53.3,88,49.8366952706853,0,0,0,0,0,30.022,9,0,0,78.6,45
2015-07-03 04:05:00,53.4,53.4,53.4,88,49.9351589218502,0,0,0,0,0,30.019,12,0,0,78.6,45
2015-07-03 04:10:00,53.4,53.4,53.4,89,50.2392713631844,0,2,0,0,0,30.022,12,0,0,78.6,45
2015-07-03 04:15:00,53.5,53.5,53.5,89,50.3378690763294,0,1,0,0,0,30.023,12,0,0,78.6,45
2015-07-03 04:20:00,53.5,53.5,53.5,89,50.3378690763294,0,0,0,0,0,30.022,15,0,0,78.6,45
2015-07-03 04:25:00,53.6,53.6,53.6,89,50.4364664806674,1,4,202.5,0,0,30.024,22,0,0,78.6,45
2015-07-03 04:30:00,53.7,53.7,53.7,89,50.5350635761998,0,2,0,0,0,30.026,27,0,0,78.8,45
2015-07-03 04:35:00,53.7,53.7,53.7,89,50.5350635761998,0,1,0,0,0,30.027,30,0,0,78.8,45
2015-07-03 04:40:00,53.7,53.7,53.7,89,50.5350635761998,0,1,0,0,0,30.026,39,0,0,78.8,45
2015-07-03 04:45:00,53.7,53.7,53.7,89,50.5350635761998,0,0,0,0,0,30.026,37,0,0,78.8,45
2015-07-03 04:50:00,53.8,53.8,53.8,89,50.633660362928,0,1,0,0,0,30.027,41,0,0,79,45
2015-07-03 04:55:00,53.9,53.9,53.9,89,50.7322568408536,0,0,0,0,0,30.03,40,0,0,79,45
2015-07-03 05:00:00,54,54,54,89,50.8308530099779,0,0,0,0,0,30.032,58,0.001,0,79,45
2015-07-03 05:05:00,54.1,54.1,54.1,89,50.9294488703025,0,2,0,0,0,30.032,68,0,0,79,45
2015-07-03 05:10:00,54.2,54.2,54.2,89,51.0280444218287,0,0,0,0,0,30.033,61,0,0,79.2,45
2015-07-03 05:15:00,54.2,54.2,54.2,89,51.0280444218287,0,2,0,0,0,30.033,60,0,0,79.2,45
2015-07-03 05:20:00,54.3,54.3,54.3,89,51.126639664558,0,2,0,0,0,30.032,68,0,0,79.2,45
2015-07-03 05:25:00,54.3,54.3,54.3,89,51.126639664558,0,2,0,0,0,30.031,80,0,0,79.3,45
2015-07-03 05:30:00,54.3,54.3,54.3,89,51.126639664558,1,2,202.5,0,0,30.033,70,0,0,79.3,44
2015-07-03 05:35:00,54.2,54.2,54.2,89,51.0280444218287,0,1,0,0,0,30.035,98,0,0,79.3,44
2015-07-03 05:40:00,54.3,54.3,54.3,89,51.126639664558,0,2,0,0,0,30.032,104,0,0,79.3,44
2015-07-03 05:45:00,54.4,54.4,54.4,89,51.225234598492,0,2,0,0,0,30.035,100,0,0,79.5,44
2015-07-03 05:50:00,54.5,54.5,54.5,89,51.3238292236319,0,1,0,0,0,30.033,144,0,0,79.5,44
2015-07-03 05:55:00,54.6,54.6,54.6,90,51.7251462176954,0,2,0,0,0,30.032,211,0,0.6,79.7,44
2015-07-03 06:00:00,54.9,54.9,54.9,90,52.021327953892,0,1,0,0,0,30.036,245,0.002,0.6,79.7,44
2015-07-03 06:05:00,55.2,55.2,55.2,90,52.3175071723588,0,1,0,0,0,30.035,247,0,0.6,79.7,43
2015-07-03 06:10:00,55.5,55.5,55.5,90,52.6136838731278,0,0,0,0,0,30.036,240,0,0.6,79.7,43
2015-07-03 06:15:00,55.9,55.9,55.9,90,53.0085822244566,0,4,0,0,0,30.035,253,0,0.6,79.7,43
2015-07-03 06:20:00,56.3,56.3,56.3,90,53.4034761000115,0,4,0,0,0,30.035,250,0,0.7,79.7,43
2015-07-03 06:25:00,56.6,56.6,56.6,90,53.6996435694968,0,2,0,0,0,30.036,266,0,0.7,79.7,43
2015-07-03 06:30:00,56.7,56.7,56.7,89,53.4928328547707,0,2,0,0,0,30.039,189,0,0.6,79.7,43
2015-07-03 06:35:00,56.6,56.6,56.6,89,53.3942450227312,1,4,202.5,0,0,30.039,240,0,0.8,79.7,43
2015-07-03 06:40:00,56.7,56.7,56.7,89,53.4928328547707,1,3,202.5,0,0,30.039,295,0,0.9,79.7,43
2015-07-03 06:45:00,57.1,57.1,57.1,87,53.2658708484184,1,4,202.5,0,0,30.039,338,0,1,79.9,43
2015-07-03 06:50:00,57.8,57.8,57.8,86,53.6377207354305,0,2,0,0,0,30.042,317,0,1,79.9,43
2015-07-03 06:55:00,58,58,58,85,53.5141993315516,1,4,202.5,0,0,30.041,343,0,1,79.9,43
2015-07-03 07:00:00,58.3,58.3,58.3,84,53.4846833285782,0,3,0,0,0,30.041,361,0.006,1.1,79.9,43
2015-07-03 07:05:00,58.7,58.7,58.7,83,53.5486574847887,0,4,0,0,0,30.04,206,0,0.9,79.9,43
2015-07-03 07:10:00,58.7,58.7,58.7,83,53.5486574847887,2,5,202.5,0,0,30.04,361,0,1.2,79.9,43
2015-07-03 07:15:00,59,59,59,82,53.5103919883795,1,6,202.5,0,0,30.044,374,0,1.3,79.9,43
2015-07-03 07:20:00,59.9,59.9,59.9,81,54.0523950731929,2,6,202.5,0,0,30.041,393,0,1.3,79.9,43
2015-07-03 07:25:00,60.1,60.1,60.1,80,53.9069498023634,1,5,180,0,0,30.046,402,0,1.5,79.9,43
2015-07-03 07:30:00,60,60,60,79,53.4656943154189,1,5,157.5,0,0,30.044,413,0,1.5,79.9,43
2015-07-03 07:35:00,60.7,60.7,60.7,79,54.1457555456991,1,3,157.5,0,0,30.044,426,0,1.6,79.9,43
2015-07-03 07:40:00,60.8,60.8,60.8,78,53.8939018771507,1,6,180,0,0,30.042,433,0,1.7,80.1,43
2015-07-03 07:45:00,61.3,61.3,61.3,77,54.0251689166224,0,4,0,0,0,30.044,443,0,1.8,80.1,43
2015-07-03 07:50:00,61.4,61.4,61.4,77,54.1220112829402,1,5,180,0,0,30.044,466,0,2,80.1,43
2015-07-03 07:55:00,62.5,62.5,62.5,76,54.8276090676984,0,3,0,0,0,30.046,478,0,2,80.1,43
2015-07-03 08:00:00,62.2,62.2,62.2,75,54.1742303411449,2,6,157.5,0,0,30.045,491,0.009,2.1,80.1,43
2015-07-03 08:05:00,61.8,61.8,61.8,76,54.1508299395307,3,6,157.5,0,0,30.046,510,0,2.2,80.1,43
2015-07-03 08:10:00,62.3,62.3,62.3,75,54.2707564273993,2,5,157.5,0,0,30.044,519,0,2.3,79.9,43
2015-07-03 08:15:00,62.5,62.5,62.5,75,54.4638063846062,2,6,157.5,0,0,30.042,527,0,2.4,79.3,43
2015-07-03 08:20:00,62.9,62.9,62.9,74,54.4811788949303,2,6,135,0,0,30.043,538,0,2.6,79.2,44
2015-07-03 08:25:00,62.8,62.8,62.8,75,54.7533757822889,0,1,0,0,0,30.041,546,0,2.7,78,44
2015-07-03 08:30:00,64,64,64,73,55.1662520766968,1,4,112.5,0,0,30.038,560,0,2.8,77,45
2015-07-03 08:35:00,63.8,63.8,63.8,73,54.9738605257466,2,5,135,0,0,30.04,549,0,2.8,76.8,46
2015-07-03 08:40:00,63.6,63.6,63.6,73,54.7814657600481,0,4,0,0,0,30.042,578,0,3,76.4,46
2015-07-03 08:45:00,63.9,63.9,63.9,72,54.690804765331,1,5,135,0,0,30.04,592,0,3.1,75.6,47
2015-07-03 08:50:00,63.7,63.7,63.7,71,54.1151566264554,4,7,202.5,0,0,30.041,606,0,3.2,75.4,47
2015-07-03 08:55:00,64,64,64,72,54.7868383807326,2,6,202.5,0,0,30.037,597,0,3.2,75.6,47
2015-07-03 09:00:00,64.8,64.8,64.8,69,54.384424499709,3,7,180,0,0,30.036,592,0.012,3.3,75.6,47
2015-07-03 09:05:00,64.6,64.6,64.6,71,54.9779710627443,2,6,180,0,0,30.036,617,0,3.4,75.9,47
2015-07-03 09:10:00,65.8,65.8,65.8,68,54.937809613843,2,6,180,0,0,30.037,634,0,3.6,76.1,47
2015-07-03 09:15:00,65.9,65.9,65.9,68,55.0331587771644,3,9,202.5,0,0,30.037,646,0,3.7,76.1,47
2015-07-03 09:20:00,66.2,66.2,66.2,66,54.4982808009707,3,6,157.5,0,0,30.036,649,0,3.8,76.1,46
2015-07-03 09:25:00,66.3,66.3,66.3,65,54.1744196774381,1,5,157.5,0,0,30.039,669,0,4,76.1,46
2015-07-03 09:30:00,67.1,67.1,67.1,66,55.3532306591751,3,6,157.5,0,0,30.034,672,0,4.1,76.3,47
2015-07-03 09:35:00,67.4,67.4,67.4,64,54.7908641769468,1,6,180,0,0,30.035,681,0,4.2,76.3,47
2015-07-03 09:40:00,68.2,68.2,68.2,63,55.1139997960439,1,5,180,0,0,30.035,700,0,4.3,76.4,46
2015-07-03 09:45:00,68.3,68.3,68.3,63,55.2084389521543,2,7,180,0,0,30.036,710,0,4.5,76.1,46
2015-07-03 09:50:00,69,69,69,59,54.0651734239373,1,5,112.5,0,0,30.036,729,0,4.7,76.3,46
2015-07-03 09:55:00,69.4,69.4,69.4,59,54.4398738743581,2,6,202.5,0,0,30.035,682,0,4.5,76.4,45
2015-07-03 10:00:00,69.6,69.6,69.6,58,54.1582158911218,2,8,157.5,0,0,30.034,753,0.016,4.8,76.4,45
2015-07-03 10:05:00,69.2,69.2,69.2,58,53.7843052457342,2,9,135,0,0,30.034,740,0,4.7,76.4,46
2015-07-03 10:10:00,69.6,69.6,69.6,58,54.1582158911218,2,6,135,0,0,30.034,797,0,5.2,76.6,45
2015-07-03 10:15:00,70.1,70.1,70.1,57,54.1484289569839,4,9,202.5,0,0,30.03,828,0,5.4,76.8,45
2015-07-03 10:20:00,70.1,70.1,70.1,57,54.1484289569839,2,6,157.5,0,0,30.031,745,0,5.2,77,45
2015-07-03 10:25:00,70.4,70.4,70.4,57,54.4282341087115,2,8,112.5,0,0,30.03,812,0,5.3,77.2,45
2015-07-03 10:30:00,72.3,72.3,72.3,55,55.2143614887332,2,8,90,0,0,30.027,847,0,5.6,77.3,45
2015-07-03 10:35:00,71.8,71.8,71.8,53,53.7345932173785,3,6,157.5,0,0,30.028,819,0,5.4,77.7,45
2015-07-03 10:40:00,71.9,71.9,71.9,53,53.8270158045834,3,9,112.5,0,0,30.028,807,0,5.8,77.9,44
2015-07-03 10:45:00,72.1,72.1,72.1,51,52.960746992105,4,9,112.5,0,0,30.027,802,0,5.7,77.9,42
2015-07-03 10:50:00,71.3,71.3,71.3,52,52.753052349285,1,6,90,0,0,30.028,800,0,5.8,77.9,42
2015-07-03 10:55:00,71.7,71.7,71.7,52,53.1219091024114,1,6,112.5,0,0,30.025,803,0,5.9,77.9,42
2015-07-03 11:00:00,72.1,72.1,72.1,50,52.421543653842,5,12,135,0,0,30.024,812,0.019,6,77.9,42
2015-07-03 11:05:00,72.4,72.4,72.4,51,53.2367019820638,2,9,90,0,0,30.024,822,0,6.1,77.9,42
2015-07-03 11:10:00,73.4,73.4,73.4,48,52.5010158163062,3,11,180,0,0,30.022,818,0,6.1,78,42
2015-07-03 11:15:00,72.4,72.4,72.4,48,51.5880177959337,4,9,135,0,0,30.02,834,0,6.1,78,41
2015-07-03 11:20:00,72.6,72.6,72.6,49,52.3304688319597,2,6,135,0,0,30.017,814,0,6.1,78,40
2015-07-03 11:25:00,73,73,73,45,50.3897060659823,3,8,157.5,0,0,30.016,799,0,6,78.2,41
2015-07-03 11:30:00,74.1,74.1,74.1,42,49.5261423191585,1,6,135,0,0,30.016,814,0,6.1,78.2,40
2015-07-03 11:35:00,73.4,73.4,73.4,42,48.8973843878017,4,8,90,0,0,30.017,840,0,6.2,78,37
2015-07-03 11:40:00,74.6,74.6,74.6,42,49.975195166932,3,11,90,0,0,30.016,822,0,6.2,78,37
2015-07-03 11:45:00,73.7,73.7,73.7,44,50.4172289937383,2,6,90,0,0,30.015,807,0,6.2,78,38
2015-07-03 11:50:00,74,74,74,45,51.2954905003604,2,7,202.5,0,0,30.01,863,0,6.3,78.2,38
2015-07-03 11:55:00,74.3,74.3,74.3,43,50.3388768321555,2,6,135,0,0,30.01,845,0,6.3,78.4,37
2015-07-03 12:00:00,74,74,74,44,50.6882074501658,6,12,112.5,0,0,30.011,857,0.021,6.2,78.4,38
2015-07-03 12:05:00,72.7,72.7,72.7,43,48.8975552127603,6,9,112.5,0,0,30.011,439,0,3.6,78.6,39
2015-07-03 12:10:00,72.2,72.2,72.2,44,49.0620791396608,1,6,22.5,0,0,30.01,765,0,5.5,78.8,38
2015-07-03 12:15:00,73.9,73.9,73.9,44,50.5978832056211,3,9,180,0,0,30.009,758,0,5.7,79,37
2015-07-03 12:20:00,74.1,74.1,74.1,43,50.1587389713472,5,10,135,0,0,30.005,786,0,5.8,78.8,36
2015-07-03 12:25:00,74,74,74,43,50.068667111897,4,9,180,0,0,30.003,948,0,6.2,78.8,36
2015-07-03 12:30:00,73.9,73.9,73.9,43,49.9785932996648,5,9,112.5,0,0,30.003,786,0,5.7,79,37
2015-07-03 12:35:00,74.5,74.5,74.5,44,51.1398000613395,4,10,112.5,0,0,30.004,689,0,5.1,79.3,38
2015-07-03 12:40:00,74.3,74.3,74.3,45,51.5671895018584,2,7,112.5,0,0,30.005,549,0,4.1,79.5,38
2015-07-03 12:45:00,73.8,73.8,73.8,45,51.1143485183805,4,10,112.5,0,0,30.006,443,0,3.4,79.7,37
2015-07-03 12:50:00,73.4,73.4,73.4,46,51.3461294561066,4,9,112.5,0,0,30.006,364,0,2.8,79.9,38
2015-07-03 12:55:00,73,73,73,46,50.9828291096217,4,8,90,0,0,30.005,389,0,3.1,80.1,38
2015-07-03 13:00:00,74.5,74.5,74.5,46,52.3450553369398,2,7,112.5,0,0,30.004,825,0.017,5.5,80.5,37
2015-07-03 13:05:00,75,75,75,45,52.2010886465316,6,13,90,0,0,30.001,956,0,6.6,80.8,37
2015-07-03 13:10:00,75.4,75.4,75.4,45,52.5632757571748,7,11,90,0,0,30.003,884,0,6.2,81,37
2015-07-03 13:15:00,75.3,75.3,75.3,46,53.0714086703302,3,11,180,0,0,30.001,826,0,5.9,81,37
2015-07-03 13:20:00,75.3,75.3,75.3,46,53.0714086703302,3,8,90,0,0,29.998,777,0,5.7,81,37
2015-07-03 13:25:00,74.8,74.8,74.8,48,53.7789219399266,4,10,112.5,0,0,29.998,820,0,5.8,81,37
2015-07-03 13:30:00,75.4,75.4,75.4,48,54.3264920564664,7,13,112.5,0,0,29.995,808,0,5.7,81,38
2015-07-03 13:35:00,76,76,76,47,54.2958882560646,4,9,112.5,0,0,29.994,799,0,5.5,81,38
2015-07-03 13:40:00,75.1,75.1,75.1,47,53.4767067170781,4,11,112.5,0,0,29.992,795,0,5.5,81.2,38
2015-07-03 13:45:00,75.6,75.6,75.6,47,53.931825318062,3,11,112.5,0,0,29.99,793,0,5.5,81.2,38
2015-07-03 13:50:00,76.2,76.2,76.2,46,53.8884170837733,5,9,112.5,0,0,29.992,785,0,5.4,81.2,37
2015-07-03 13:55:00,75.7,75.7,75.7,46,53.4345416998224,4,11,90,0,0,29.991,777,0,5.3,81,37
2015-07-03 14:00:00,76.3,76.3,76.3,45,53.3780878301808,4,9,112.5,0,0,29.989,767,0.022,5.2,81,37
2015-07-03 14:05:00,76.2,76.2,76.2,44,52.674858335282,6,13,112.5,0,0,29.991,766,0,5.1,81.2,37
2015-07-03 14:10:00,75.7,75.7,75.7,45,52.834896538141,7,12,90,0,0,29.99,750,0,4.9,81,37
2015-07-03 14:15:00,75.7,75.7,75.7,46,53.4345416998224,4,11,90,0,0,29.986,759,0,4.9,81,37
2015-07-03 14:20:00,76.2,76.2,76.2,42,51.4118286064949,7,14,90,0,0,29.986,761,0,4.9,80.8,36
2015-07-03 14:25:00,75.7,75.7,75.7,46,53.4345416998224,6,14,90,0,0,29.985,752,0,4.7,80.8,37
2015-07-03 14:30:00,75.6,75.6,75.6,46,53.3437611694741,6,12,90,0,0,29.987,719,0,4.4,80.8,37
2015-07-03 14:35:00,75.7,75.7,75.7,46,53.4345416998224,5,10,135,0,0,29.983,781,0,4.5,80.8,37
2015-07-03 14:40:00,76.5,76.5,76.5,43,52.3198779286086,6,13,112.5,0,0,29.982,740,0,4.3,81,37
2015-07-03 14:45:00,76.8,76.8,76.8,45,53.8306960467671,4,11,90,0,0,29.976,753,0,4.3,81,37
2015-07-03 14:50:00,76.7,76.7,76.7,44,53.1262412092628,7,14,90,0,0,29.977,692,0,4,81.2,37
2015-07-03 14:55:00,76.6,76.6,76.6,46,54.2514846728614,4,9,112.5,0,0,29.973,767,0,4.1,81.2,37
2015-07-03 15:00:00,76.6,76.6,76.6,46,54.2514846728614,7,12,112.5,0,0,29.97,558,0.021,3,81.2,37
2015-07-03 15:05:00,75.3,75.3,75.3,47,53.6587594816324,8,20,135,0,0,29.973,554,0,3.5,81.2,38
2015-07-03 15:10:00,75.5,75.5,75.5,47,53.8408051472365,4,11,90,0,0,29.964,719,0,3.7,81.4,38
2015-07-03 15:15:00,76,76,76,47,54.2958882560646,6,15,90,0,0,29.964,516,0,2.9,81.4,38
2015-07-03 15:20:00,75.3,75.3,75.3,48,54.2352347002806,7,13,112.5,0,0,29.967,655,0,2.9,81.4,38
2015-07-03 15:25:00,75.6,75.6,75.6,47,53.931825318062,6,13,90,0,0,29.965,666,0,3.2,81.4,37
2015-07-03 15:30:00,75.8,75.8,75.8,45,52.9254330745759,6,10,90,0,0,29.961,584,0,3,81.4,37
2015-07-03 15:35:00,76.3,76.3,76.3,45,53.3780878301808,5,12,135,0,0,29.959,626,0,3,81.4,37
2015-07-03 15:40:00,76,76,76,46,53.7068723835326,8,15,90,0,0,29.959,555,0,2.6,81.4,37
2015-07-03 15:45:00,75.2,75.2,75.2,47,53.5677339867499,8,13,112.5,0,0,29.96,468,0,2.2,81.6,37
2015-07-03 15:50:00,74.6,74.6,74.6,48,53.5963847111327,5,13,135,0,0,29.956,346,0,1.7,81.6,37
2015-07-03 15:55:00,74.5,74.5,74.5,50,54.6234652018566,5,12,112.5,0,0,29.955,331,0,1.6,81.6,37
2015-07-03 16:00:00,74.5,74.5,74.5,50,54.6234652018566,5,9,90,0,0,29.953,278,0.016,1.3,81.6,38
2015-07-03 16:05:00,74.2,74.2,74.2,50,54.3482769388859,6,13,90,0,0,29.952,331,0,1.4,81.6,38
2015-07-03 16:10:00,74.4,74.4,74.4,50,54.531737429114,5,11,112.5,0,0,29.953,303,0,1.2,81.6,38
2015-07-03 16:15:00,74.5,74.5,74.5,50,54.6234652018566,6,13,112.5,0,0,29.951,310,0,1.2,81.6,38
2015-07-03 16:20:00,73.7,73.7,73.7,51,54.4323397420746,7,14,90,0,0,29.949,277,0,1,81.6,38
2015-07-03 16:25:00,73.7,73.7,73.7,52,54.9658167782386,6,12,112.5,0,0,29.952,233,0,0.7,81.8,38
2015-07-03 16:30:00,73.1,73.1,73.1,53,54.9359677697931,8,15,112.5,0,0,29.952,203,0,0.6,81.6,38
2015-07-03 16:35:00,72.2,72.2,72.2,55,55.1215266338812,8,14,112.5,0,0,29.951,200,0,0.5,81.6,38
2015-07-03 16:40:00,71.7,71.7,71.7,54,54.1538774923058,11,19,112.5,0,0,29.95,204,0,0.3,81.4,39
2015-07-03 16:45:00,71.3,71.3,71.3,55,54.2859478028718,9,16,112.5,0,0,29.952,200,0,0,81.2,38
2015-07-03 16:50:00,71,71,71,55,54.007395468291,7,15,112.5,0,0,29.957,195,0,0.1,81,39
2015-07-03 16:55:00,71.3,71.3,71.3,54,53.783323882906,6,15,112.5,0,0,29.954,184,0,0,80.8,38
2015-07-03 17:00:00,71,71,71,52,52.4763933267357,9,15,112.5,0,0,29.952,173,0.009,0,80.8,38
2015-07-03 17:05:00,70.7,70.7,70.7,52,52.1997201963835,8,14,90,0,0,29.95,162,0,0,80.8,38
2015-07-03 17:10:00,70.3,70.3,70.3,52,51.8308007419111,9,21,112.5,0,0,29.951,166,0,0,80.6,37
2015-07-03 17:15:00,69.8,69.8,69.8,53,51.8858207825113,10,19,112.5,0,0,29.952,177,0,0,80.5,37
2015-07-03 17:20:00,69.7,69.7,69.7,53,51.7933661233151,9,15,112.5,0,0,29.95,177,0,0,80.5,37
2015-07-03 17:25:00,69.8,69.8,69.8,54,52.393535909766,6,16,112.5,0,0,29.95,174,0,0,80.3,38
2015-07-03 17:30:00,70,70,70,53,52.0707255180929,5,12,90,0,0,29.949,181,0,0,80.3,38
2015-07-03 17:35:00,69.7,69.7,69.7,54,52.3008714780455,7,15,112.5,0,0,29.949,186,0,0,80.3,38
2015-07-03 17:40:00,69.5,69.5,69.5,54,52.1155381513931,7,12,112.5,0,0,29.948,205,0,0,80.3,38
2015-07-03 17:45:00,69.4,69.4,69.4,54,52.0228692563896,7,14,112.5,0,0,29.943,178,0,0,80.3,38
2015-07-03 17:50:00,69.4,69.4,69.4,53,51.5159929796508,6,13,112.5,0,0,29.941,164,0,0,80.1,37
2015-07-03 17:55:00,68.9,68.9,68.9,53,51.0536738510188,7,15,90,0,0,29.937,153,0,0,79.9,37
2015-07-03 18:00:00,68.8,68.8,68.8,53,50.9612054415728,7,12,112.5,0,0,29.941,129,0.007,0,79.7,37
2015-07-03 18:05:00,68.6,68.6,68.6,52,50.2626131747783,5,10,112.5,0,0,29.944,97,0,0,79.7,37
2015-07-03 18:10:00,68.4,68.4,68.4,53,50.5913165234615,4,11,112.5,0,0,29.949,89,0,0,79.5,37
2015-07-03 18:15:00,68,68,68,53,50.221403155008,8,14,112.5,0,0,29.944,93,0,0,79.5,37
2015-07-03 18:20:00,67.8,67.8,67.8,53,50.0364373011453,6,11,90,0,0,29.937,108,0,0,79.3,37
2015-07-03 18:25:00,67.5,67.5,67.5,54,50.2618775222523,8,15,112.5,0,0,29.933,126,0,0,79.3,37
2015-07-03 18:30:00,67.3,67.3,67.3,55,50.570845009807,7,15,90,0,0,29.933,139,0,0,79.2,37
2015-07-03 18:35:00,67.2,67.2,67.2,55,50.4779377431566,7,11,90,0,0,29.942,171,0,0,79.2,37
2015-07-03 18:40:00,67.3,67.3,67.3,56,51.0573711412152,5,10,90,0,0,29.948,142,0,0,79.2,38
2015-07-03 18:45:00,67,67,67,56,50.7780373342042,7,11,112.5,0,0,29.947,95,0,0,79.2,38
2015-07-03 18:50:00,66.7,66.7,66.7,57,50.9764416608671,7,11,90,0,0,29.936,66,0,0,79,38
2015-07-03 18:55:00,66.6,66.6,66.6,58,51.3533662605485,4,9,90,0,0,29.941,61,0,0,79,38
2015-07-03 19:00:00,66.6,66.6,66.6,58,51.3533662605485,4,9,112.5,0,0,29.948,57,0.005,0,78.8,38
2015-07-03 19:05:00,66.4,66.4,66.4,58,51.166333627214,6,11,112.5,0,0,29.942,61,0,0,78.6,38
2015-07-03 19:10:00,66.1,66.1,66.1,58,50.8857746767574,6,11,90,0,0,29.941,61,0,0,78.4,39
2015-07-03 19:15:00,65.8,65.8,65.8,59,51.0668238381555,6,11,90,0,0,29.943,58,0,0,78.4,39
2015-07-03 19:20:00,65.5,65.5,65.5,60,51.239881236366,6,11,90,0,0,29.941,56,0,0,78.2,39
2015-07-03 19:25:00,65.4,65.4,65.4,60,51.1459668464113,3,8,90,0,0,29.945,52,0,0,78,39
2015-07-03 19:30:00,65,65,65,61,51.2169710055608,6,12,90,0,0,29.939,57,0,0,77.9,39
2015-07-03 19:35:00,64.8,64.8,64.8,61,51.0287525518847,5,13,90,0,0,29.938,61,0,0,77.7,39
2015-07-03 19:40:00,64.5,64.5,64.5,61,50.7464157103428,8,13,90,0,0,29.937,49,0,0,77.7,40
2015-07-03 19:45:00,64.2,64.2,64.2,62,50.9028690751511,6,12,112.5,0,0,29.944,46,0,0,77.5,40
2015-07-03 19:50:00,64.1,64.1,64.1,63,51.2410059514295,7,12,90,0,0,29.939,39,0,0,77.2,40
2015-07-03 19:55:00,63.9,63.9,63.9,63,51.0520300444182,6,11,90,0,0,29.933,35,0,0,77,40
2015-07-03 20:00:00,63.5,63.5,63.5,64,51.0994315767837,7,13,90,0,0,29.931,33,0.003,0,76.8,41
2015-07-03 20:05:00,63.3,63.3,63.3,65,51.3292905733845,6,12,90,0,0,29.932,32,0,0,76.6,41
2015-07-03 20:10:00,63.1,63.1,63.1,66,51.5528077881748,6,11,112.5,0,0,29.94,25,0,0,76.4,41
2015-07-03 20:15:00,62.9,62.9,62.9,66,51.362742894157,4,10,112.5,0,0,29.946,18,0,0,76.4,42
2015-07-03 20:20:00,62.7,62.7,62.7,67,51.5797412449348,5,9,112.5,0,0,29.943,12,0,0,76.3,42
2015-07-03 20:25:00,62.5,62.5,62.5,68,51.7907418988608,5,11,112.5,0,0,29.947,8,0,0,76.1,42
2015-07-03 20:30:00,62.4,62.4,62.4,68,51.6953596825684,4,9,90,0,0,29.954,5,0,0,75.9,43
2015-07-03 20:35:00,62.2,62.2,62.2,69,51.9003509313069,6,12,90,0,0,29.944,4,0,0,75.7,43
2015-07-03 20:40:00,62,62,62,69,51.709242085109,6,11,112.5,0,0,29.94,0,0,0,75.6,43
2015-07-03 20:45:00,61.8,61.8,61.8,70,51.9082121703982,5,10,112.5,0,0,29.941,0,0,0,75.4,44
2015-07-03 20:50:00,61.5,61.5,61.5,70,51.6210362554487,6,10,112.5,0,0,29.942,0,0,0,75.4,44
2015-07-03 20:55:00,61.3,61.3,61.3,71,51.8139735037477,4,9,112.5,0,0,29.945,0,0,0,75.2,44
2015-07-03 21:00:00,61.1,61.1,61.1,71,51.622185612972,3,9,90,0,0,29.948,0,0.002,0,75.2,44
2015-07-03 21:05:00,60.9,60.9,60.9,72,51.809407148559,3,9,90,0,0,29.946,0,0,0,75.2,44
2015-07-03 21:10:00,60.7,60.7,60.7,73,51.9913803502735,4,10,90,0,0,29.942,0,0,0,75.2,45
2015-07-03 21:15:00,60.5,60.5,60.5,73,51.7989357456711,5,9,90,0,0,29.94,0,0,0,75.2,45
2015-07-03 21:20:00,60.3,60.3,60.3,74,51.9754692096377,5,10,90,0,0,29.936,0,0,0,75,45
2015-07-03 21:25:00,60.2,60.2,60.2,74,51.8790853502623,4,11,112.5,0,0,29.933,0,0,0,74.9,45
2015-07-03 21:30:00,60.1,60.1,60.1,75,52.1470119358963,4,10,112.5,0,0,29.931,0,0,0,74.5,46
2015-07-03 21:35:00,59.9,59.9,59.9,76,52.3136835849069,4,10,112.5,0,0,29.93,0,0,0,74.5,46
2015-07-03 21:40:00,59.7,59.7,59.7,76,52.1202849260553,5,12,90,0,0,29.929,0,0,0,74.2,47
2015-07-03 21:45:00,59.6,59.6,59.6,77,52.3787455321524,5,11,90,0,0,29.925,0,0,0,74,47
2015-07-03 21:50:00,59.4,59.4,59.4,78,52.535863301527,4,10,90,0,0,29.926,0,0,0,73.8,47
2015-07-03 21:55:00,59.1,59.1,59.1,78,52.2448386511123,3,9,90,0,0,29.918,0,0,0,73.8,47
2015-07-03 22:00:00,59,59,59,79,52.4941263384897,6,11,90,0,0,29.916,0,0.001,0,73.8,48
2015-07-03 22:05:00,59,59,59,80,52.8365931705396,6,11,67.5,0,0,29.911,0,0,0,73.6,48